TimePST,TemperatureF,Dew PointF,Humidity,Sea Level PressureIn,VisibilityMPH,Wind Direction,Wind SpeedMPH,Gust SpeedMPH,PrecipitationIn,Events,Conditions,WindDirDegrees,DateUTC
12:55 AM,43.0,37.9,82,30.25,10.0,Calm,Calm,-,N/A,,Clear,0,2013-01-30 08:55:00
1:55 AM,43.0,37.0,80,30.27,10.0,North,3.5,-,N/A,,Clear,10,2013-01-30 09:55:00
2:55 AM,44.1,37.0,76,30.27,10.0,Calm,Calm,-,N/A,,Clear,0,2013-01-30 10:55:00
4:55 AM,39.9,35.1,83,30.29,10.0,Calm,Calm,-,N/A,,Clear,0,2013-01-30 12:55:00
5:55 AM,42.1,36.0,79,30.30,10.0,East,5.8,-,N/A,,Clear,80,2013-01-30 13:55:00
6:55 AM,42.1,36.0,79,30.32,10.0,ENE,5.8,-,N/A,,Clear,60,2013-01-30 14:55:00
7:55 AM,48.0,39.0,71,30.34,10.0,East,4.6,-,N/A,,Clear,80,2013-01-30 15:55:00
8:55 AM,54.0,39.0,57,30.35,10.0,Calm,Calm,-,N/A,,Clear,0,2013-01-30 16:55:00
9:55 AM,55.9,42.1,60,30.36,10.0,SW,3.5,-,N/A,,Clear,230,2013-01-30 17:55:00
10:55 AM,61.0,39.0,44,30.36,10.0,SSW,3.5,-,N/A,,Clear,200,2013-01-30 18:55:00
12:55 PM,64.9,43.0,45,30.29,10.0,SSW,5.8,-,N/A,,Clear,200,2013-01-30 20:55:00
1:55 PM,63.0,45.0,52,30.28,10.0,WSW,9.2,-,N/A,,Clear,250,2013-01-30 21:55:00
2:55 PM,64.0,45.0,50,30.26,10.0,West,8.1,-,N/A,,Clear,260,2013-01-30 22:55:00
3:55 PM,63.0,46.0,54,30.26,10.0,West,6.9,-,N/A,,Clear,270,2013-01-30 23:55:00
4:55 PM,60.1,46.0,60,30.26,10.0,West,4.6,-,N/A,,Clear,270,2013-01-31 00:55:00
5:55 PM,59.0,45.0,60,30.26,10.0,SSE,3.5,-,N/A,,Clear,150,2013-01-31 01:55:00
6:55 PM,53.1,45.0,74,30.27,10.0,Calm,Calm,-,N/A,,Clear,0,2013-01-31 02:55:00
8:55 PM,48.0,42.1,80,30.28,10.0,Calm,Calm,-,N/A,,Clear,0,2013-01-31 04:55:00
10:55 PM,46.0,39.9,79,30.29,10.0,Calm,Calm,-,N/A,,Clear,0,2013-01-31 06:55:00
11:55 PM,46.0,39.9,79,30.28,10.0,Calm,Calm,-,N/A,,Clear,0,2013-01-31 07:55:00